Edwards AFB North Base, CA

11:06 PM PST on November 12, 2019 (GMT -0800)
Edwards AFB North Base

Weather History for K9L2 - September, 2019

Change the Weather History Date:

Tuesday, September 17, 2019

  Actual Average (KEDW) Record (KEDW)
Temperature  
Mean Temperature 70 °F -  
Max Temperature 82 °F 89 °F 104 °F (2000)
Min Temperature 58 °F 55 °F 42 °F (2006)
Cooling Degree Days 5    
Growing Degree Days 20 (Base 50)    
Moisture  
Dew Point 39 °F    
Average Humidity 34    
Maximum Humidity 62    
Minimum Humidity 17    
Precipitation  
Precipitation 0.00 in - - ()
Sea Level Pressure  
Sea Level Pressure 29.90 in    
Wind  
Wind Speed 7 mph ()    
Max Wind Speed 16 mph    
Max Gust Speed -    
Visibility 7.9 miles    
Events      
Averages and records for this station are not official NWS values.
T = Trace of Precipitation, MM = Missing Value Source: Averaged Metar Reports

Daily Weather History Graph

Daily Weather History Graph

Search for Another Location

Airport or City:

Astronomy

Sep. 17, 2019 Rise Set
Actual Time 6:35 AM PDT 6:55 PM PDT
Civil Twilight 6:10 AM PDT 7:20 PM PDT
Nautical Twilight 5:40 AM PDT 7:50 PM PDT
Astronomical Twilight 5:10 AM PDT 8:20 PM PDT
Moon 9:08 PM PDT (9/17) 9:38 AM PDT (9/17)
Length of Visible Light 13h 10m
Length of Day
12h 19m
Waning Gibbous, 88% of the Moon is Illuminated
Sep 17
Waning Gibbous
Sep 21
Last Quarter
Sep 28
New
Oct 5
First Quarter
Oct 13
Full

Hourly Weather History & Observations

Time (PDT) Temp. Dew Point Humidity Pressure Visibility Wind Dir Wind Speed Gust Speed Precip Events Conditions
12:58 AM 61.3 °F 47.3 °F 60% 29.88 in 9.0 mi West 9.2 mph - N/A   Clear
1:58 AM 61.5 °F 46.8 °F 58% 29.90 in 9.0 mi West 10.4 mph - N/A   Clear
2:58 AM 59.7 °F 46.8 °F 62% 29.91 in 10.0 mi West 10.4 mph - N/A   Clear
3:58 AM 59.5 °F 44.6 °F 58% 29.89 in 10.0 mi WSW 13.8 mph - N/A   Clear
4:58 AM 59.2 °F 43.0 °F 55% 29.91 in 10.0 mi WSW 13.8 mph - N/A   Clear
5:58 AM 59.4 °F 41.7 °F 52% 29.91 in 10.0 mi SW 9.2 mph - N/A   Clear
6:58 AM 58.1 °F 41.5 °F 54% 29.94 in 10.0 mi South 3.5 mph - N/A   Clear
7:58 AM 59.9 °F 42.1 °F 52% 29.97 in 9.0 mi SE 6.9 mph - N/A   Clear
8:58 AM 68.0 °F 41.7 °F 38% 29.97 in 8.0 mi SSW 5.8 mph - N/A   Clear
10:58 AM 73.6 °F 41.0 °F 31% 29.97 in 7.0 mi ESE 3.5 mph - N/A   Clear
11:58 AM 76.1 °F 39.7 °F 27% 29.96 in 8.0 mi ESE 5.8 mph - N/A   Clear
12:58 PM 78.1 °F 38.3 °F 24% 29.94 in 7.0 mi East 5.8 mph - N/A   Clear
1:43 PM 80.6 °F 35.6 °F 20% 29.93 in 6.0 mi NW 5.8 mph - N/A   Haze
1:58 PM 80.1 °F 34.7 °F 19% 29.93 in 7.0 mi NW 6.9 mph - N/A   Clear
2:43 PM 80.6 °F 35.6 °F 20% 29.91 in 6.0 mi NNE 5.8 mph - N/A   Haze
2:58 PM 81.3 °F 35.1 °F 19% 29.91 in 7.0 mi North 4.6 mph - N/A   Clear
3:43 PM 82.4 °F 33.8 °F 17% 29.88 in 6.0 mi Calm Calm - N/A   Haze
3:58 PM 82.2 °F 33.6 °F 17% 29.87 in 7.0 mi Calm Calm - N/A   Clear
4:13 PM 82.4 °F 33.8 °F 17% 29.87 in 6.0 mi WNW 6.9 mph - N/A   Haze
4:28 PM 82.4 °F 33.8 °F 17% 29.86 in 6.0 mi NE 5.8 mph - N/A   Haze
4:43 PM 82.4 °F 33.8 °F 17% 29.86 in 7.0 mi West 8.1 mph - N/A   Clear
4:58 PM 82.8 °F 34.3 °F 18% 29.86 in 7.0 mi SSE 4.6 mph - N/A   Clear
5:58 PM 82.4 °F 35.8 °F 19% 29.85 in 7.0 mi Calm Calm - N/A   Clear
6:28 PM 80.6 °F 37.4 °F 21% 29.85 in 6.0 mi West 16.1 mph - N/A   Haze
6:43 PM 78.8 °F 37.4 °F 23% 29.86 in 7.0 mi West 13.8 mph - N/A   Clear
6:58 PM 77.0 °F 38.3 °F 25% 29.86 in 7.0 mi West 15.0 mph - N/A   Clear
7:58 PM 70.9 °F 41.2 °F 34% 29.88 in 9.0 mi WSW 15.0 mph - N/A   Clear
8:58 PM 68.2 °F 41.7 °F 38% 29.88 in 9.0 mi West 12.7 mph - N/A   Clear
9:58 PM 66.6 °F 42.1 °F 41% 29.89 in 9.0 mi South 4.6 mph - N/A   Clear
10:58 PM 63.7 °F 42.6 °F 46% 29.89 in 9.0 mi South 6.9 mph - N/A   Clear
11:58 PM 61.5 °F 41.5 °F 48% 29.88 in 10.0 mi SW 4.6 mph - N/A   Clear